Weather History for VLVT - September, 2013

Change the Weather History Date:

Monday, September 2, 2013

  Actual Average Record
Temperature  
Mean Temperature 82 °F -  
Max Temperature 86 °F 82 °F 91 °F (2003)
Min Temperature 78 °F 75 °F 74 °F (2014)
Cooling Degree Days 17    
Growing Degree Days 32 (Base 50)    
Moisture  
Dew Point 78 °F    
Average Humidity 84    
Maximum Humidity 95    
Minimum Humidity 74    
Precipitation  
Precipitation 0.00 in 0.37 in - ()
Sea Level Pressure  
Sea Level Pressure 29.83 in    
Wind  
Wind Speed 3 mph ()    
Max Wind Speed 5 mph    
Max Gust Speed -    
Visibility 3.1 miles    
Events Rain , Thunderstorm    
Averages and records for this station are not official NWS values.
T = Trace of Precipitation, MM = Missing Value Source: Averaged Metar Reports

Daily Weather History Graph

Daily Weather History Graph

Search for Another Location

Airport or City:

Trip Planner

Search our weather history database for the weather conditions in past years. The results will help you decide how hot, cold, wet, or windy it might be!

Date:

Astronomy

Sep. 02, 2013 Rise Set
Actual Time 5:55 AM ICT 6:23 PM ICT
Civil Twilight 5:33 AM ICT 6:45 PM ICT
Nautical Twilight 5:07 AM ICT 7:10 PM ICT
Astronomical Twilight 4:41 AM ICT 7:36 PM ICT
Moon 3:00 AM ICT (9/2) 4:03 PM ICT (9/2)
Length of Visible Light 13h 11m
Length of Day
12h 27m
Waning Crescent, 10% of the Moon is Illuminated
Sep 2
Waning Crescent
Sep 5
New
Sep 13
First Quarter
Sep 19
Full
Sep 27
Last Quarter

Hourly Weather History & Observations

Time (ICT) Temp. Heat Index Dew Point Humidity Pressure Visibility Wind Dir Wind Speed Gust Speed Precip Events Conditions
1:00 AM 79 °F - 77 °F 91% 29.82 in 1 mi East 4.5 mph - - Thunderstorm Thunderstorm
7:00 AM 78 °F - 77 °F 95% 29.84 in 2 mi NNW 2.2 mph - - Rain Light Drizzle
7:00 AM 78.8 °F - 77.0 °F 94% 29.86 in 1.9 mi NNW 2.3 mph - N/A   Drizzle
7:30 AM 78.8 °F - 77.0 °F 94% 29.86 in 1.9 mi NE 2.3 mph - N/A   Drizzle
8:00 AM 78.8 °F - 77.0 °F 94% 29.89 in 2.5 mi North 2.3 mph - N/A   Mostly Cloudy
8:30 AM 78.8 °F - 77.0 °F 94% 29.89 in 2.5 mi NNW 2.3 mph - N/A   Mostly Cloudy
9:00 AM 80.6 °F 87.1 °F 77.0 °F 89% 29.89 in 3.1 mi SW 2.3 mph - N/A   Mostly Cloudy
9:30 AM 80.6 °F 87.1 °F 77.0 °F 89% 29.89 in 3.1 mi SSW 2.3 mph - N/A   Mostly Cloudy
10:00 AM 80.6 °F 87.1 °F 77.0 °F 89% 29.89 in 3.1 mi SW 2.3 mph - N/A   Mostly Cloudy
10:30 AM 80.6 °F 87.1 °F 77.0 °F 89% 29.89 in 3.1 mi East 2.3 mph - N/A   Mostly Cloudy
11:00 AM 82.4 °F 90.9 °F 77.0 °F 84% 29.89 in 3.7 mi North 2.3 mph - N/A   Mostly Cloudy
11:30 AM 82.4 °F 90.9 °F 77.0 °F 84% 29.89 in 3.7 mi East 2.3 mph - N/A   Mostly Cloudy
12:00 PM 84.2 °F 94.1 °F 77.0 °F 79% 29.86 in 3.7 mi North 4.6 mph - N/A   Mostly Cloudy
12:30 PM 84.2 °F 94.1 °F 77.0 °F 79% 29.86 in 3.7 mi WNW 4.6 mph - N/A   Mostly Cloudy
1:00 PM 84 °F - 77 °F 74% 29.81 in 4 mi North 4.5 mph - -   Haze
1:00 PM 84.2 °F 94.1 °F 77.0 °F 79% 29.86 in 3.7 mi North 4.6 mph - N/A   Mostly Cloudy
1:30 PM 84.2 °F 94.1 °F 77.0 °F 79% 29.86 in 3.7 mi NE 4.6 mph - N/A   Mostly Cloudy
2:00 PM 86.0 °F 96.9 °F 77.0 °F 74% 29.80 in 3.7 mi North 4.6 mph - N/A   Mostly Cloudy
2:30 PM 86.0 °F 96.9 °F 77.0 °F 74% 29.80 in 3.7 mi ENE 4.6 mph - N/A   Mostly Cloudy
4:30 PM 86.0 °F 99.3 °F 78.8 °F 79% 29.77 in 4.3 mi NW 2.3 mph - N/A   Scattered Clouds
5:00 PM 86.0 °F 99.3 °F 78.8 °F 79% 29.77 in 4.3 mi SSW 2.3 mph - N/A   Mostly Cloudy
5:30 PM 86.0 °F 99.3 °F 78.8 °F 79% 29.77 in 4.3 mi SE 2.3 mph - N/A   Mostly Cloudy
6:00 PM 84.2 °F 96.1 °F 78.8 °F 84% 29.77 in 3.7 mi ESE 4.6 mph - N/A   Mostly Cloudy
6:30 PM 84.2 °F 96.1 °F 78.8 °F 84% 29.77 in 3.7 mi East 4.6 mph - N/A   Mostly Cloudy
7:00 PM 84 °F - 78 °F 76% 29.74 in 3 mi South 2.2 mph - -   Scattered Clouds
7:00 PM 84.2 °F 94.1 °F 77.0 °F 79% 29.77 in 2.5 mi South 2.3 mph - N/A   Mostly Cloudy
7:30 PM 84.2 °F 94.1 °F 77.0 °F 79% 29.77 in 2.5 mi SSW 2.3 mph - N/A   Mostly Cloudy
8:00 PM 82.4 °F 92.4 °F 78.8 °F 89% 29.80 in 1.9 mi SW 2.3 mph - N/A   Mostly Cloudy
8:30 PM 82.4 °F 92.4 °F 78.8 °F 89% 29.80 in 1.9 mi East 2.3 mph - N/A   Mostly Cloudy
9:00 PM 82.4 °F 92.4 °F 78.8 °F 89% 29.80 in 1.9 mi NW 2.3 mph - N/A   Mostly Cloudy